Zurück zum Katalog

SL-12 R/B(2)

AktivGEO
NORAD 17972·ROCKET BODY·🇷🇺 Russia

Gestartet May 11, 1987 von Baikonur Cosmodrome

Loading…

TLE

AktuellSource: Space-Track

Epoche: Sep 14, 2026, 04:30 UTC

1 17972U 87040D   26257.18772377 -.00000133  00000-0  00000-0 0  9997
2 17972   7.5164 307.7423 0018009 322.5206  82.6949  1.03016049126950

Verfolge SL-12 R/B(2) in Echtzeit mit AllMySat

Download on the App Store